Time,TemperatureF,DewpointF,PressureIn,WindDirection,WindDirectionDegrees,WindSpeedMPH,WindSpeedGustMPH,Humidity,HourlyPrecipIn,Conditions,Clouds,dailyrainin,SolarRadiationWatts/m^2,SoftwareType,DateUTC
2013-06-25 00:43:00,66.0,50.0,-100.00,SSW,201,0.0,13.0,56,0.00,,,0.00,0.000000,,2013-06-25 07:43:00,
2013-06-25 00:52:00,66.0,50.0,-100.00,SSW,201,0.0,13.0,56,0.00,,,0.00,0.000000,,2013-06-25 07:52:00,
2013-06-25 01:43:00,66.0,49.0,-100.00,North,359,7.0,11.0,55,0.00,,,0.00,0.000000,,2013-06-25 08:43:00,
2013-06-25 01:52:00,66.0,49.0,-100.00,North,359,7.0,11.0,55,0.00,,,0.00,0.000000,,2013-06-25 08:52:00,
2013-06-25 02:21:00,67.0,50.0,-100.00,North,10,6.0,12.0,55,0.00,,,0.00,0.000000,,2013-06-25 09:21:00,
2013-06-25 02:33:00,67.0,50.0,-100.00,North,10,6.0,12.0,55,0.00,,,0.00,0.000000,,2013-06-25 09:33:00,
2013-06-25 02:43:00,67.0,50.0,-100.00,North,10,6.0,12.0,55,0.00,,,0.00,0.000000,,2013-06-25 09:43:00,
2013-06-25 02:52:00,67.0,50.0,-100.00,North,10,6.0,12.0,55,0.00,,,0.00,0.000000,,2013-06-25 09:52:00,
2013-06-25 03:33:00,67.0,50.0,-100.00,North,358,6.0,11.0,55,0.00,,,0.00,0.000000,,2013-06-25 10:33:00,
2013-06-25 03:42:00,67.0,50.0,-100.00,North,358,6.0,11.0,55,0.00,,,0.00,0.000000,,2013-06-25 10:42:00,
2013-06-25 03:52:00,67.0,50.0,-100.00,North,358,6.0,11.0,55,0.00,,,0.00,0.000000,,2013-06-25 10:52:00,
2013-06-25 04:34:00,65.0,52.0,-100.00,SSE,158,8.0,11.0,63,0.00,,,0.00,0.000000,,2013-06-25 11:34:00,
2013-06-25 04:43:00,65.0,52.0,-100.00,SSE,158,8.0,11.0,63,0.00,,,0.00,0.000000,,2013-06-25 11:43:00,
2013-06-25 04:52:00,65.0,52.0,-100.00,SSE,158,8.0,11.0,63,0.00,,,0.00,0.000000,,2013-06-25 11:52:00,
2013-06-25 05:43:00,62.0,51.0,-100.00,SSE,168,5.0,10.0,68,0.00,,,0.00,0.000000,,2013-06-25 12:43:00,
2013-06-25 05:55:00,62.0,51.0,-100.00,SSE,168,5.0,10.0,68,0.00,,,0.00,0.000000,,2013-06-25 12:55:00,
2013-06-25 06:22:00,63.0,53.0,-100.00,SE,145,0.0,9.0,70,0.00,,,0.00,1.000000,,2013-06-25 13:22:00,
2013-06-25 06:34:00,63.0,53.0,-100.00,SE,145,0.0,9.0,70,0.00,,,0.00,1.000000,,2013-06-25 13:34:00,
2013-06-25 06:42:00,63.0,53.0,-100.00,SE,145,0.0,9.0,70,0.00,,,0.00,1.000000,,2013-06-25 13:42:00,
2013-06-25 06:53:00,63.0,53.0,-100.00,SE,145,0.0,9.0,70,0.00,,,0.00,1.000000,,2013-06-25 13:53:00,
2013-06-25 07:42:00,63.0,53.0,-100.00,North,8,2.0,6.0,69,0.00,,,0.00,14.000000,,2013-06-25 14:42:00,
2013-06-25 07:53:00,63.0,53.0,-100.00,North,8,2.0,6.0,69,0.00,,,0.00,14.000000,,2013-06-25 14:53:00,
2013-06-25 08:44:00,68.0,50.0,-100.00,NNE,21,6.0,9.0,52,0.00,,,0.00,229.000000,,2013-06-25 15:44:00,
2013-06-25 08:53:00,68.0,50.0,-100.00,NNE,21,6.0,9.0,52,0.00,,,0.00,229.000000,,2013-06-25 15:53:00,
2013-06-25 09:23:00,71.0,50.0,-100.00,South,172,8.0,14.0,47,0.00,,,0.00,502.000000,,2013-06-25 16:23:00,
2013-06-25 09:34:00,71.0,50.0,-100.00,South,172,8.0,14.0,47,0.00,,,0.00,502.000000,,2013-06-25 16:34:00,
2013-06-25 09:44:00,71.0,50.0,-100.00,South,172,8.0,14.0,47,0.00,,,0.00,502.000000,,2013-06-25 16:44:00,
2013-06-25 09:52:00,71.0,50.0,-100.00,South,172,8.0,14.0,47,0.00,,,0.00,502.000000,,2013-06-25 16:52:00,
2013-06-25 10:44:00,74.0,51.0,-100.00,SSE,165,12.0,16.0,45,0.00,,,0.00,706.000000,,2013-06-25 17:44:00,
2013-06-25 10:53:00,74.0,51.0,-100.00,SSE,165,12.0,16.0,45,0.00,,,0.00,706.000000,,2013-06-25 17:53:00,
2013-06-25 11:22:00,78.0,52.0,-100.00,South,176,10.0,22.0,40,0.00,,,0.00,876.000000,,2013-06-25 18:22:00,
2013-06-25 11:34:00,78.0,52.0,-100.00,South,176,10.0,22.0,40,0.00,,,0.00,876.000000,,2013-06-25 18:34:00,
2013-06-25 11:44:00,78.0,52.0,-100.00,South,176,10.0,22.0,40,0.00,,,0.00,876.000000,,2013-06-25 18:44:00,
2013-06-25 11:52:00,78.0,52.0,-100.00,South,176,10.0,22.0,40,0.00,,,0.00,876.000000,,2013-06-25 18:52:00,
2013-06-25 12:44:00,87.0,52.0,-100.00,WSW,247,6.0,14.0,30,0.00,,,0.00,1004.000000,,2013-06-25 19:44:00,
2013-06-25 12:53:00,87.0,52.0,-100.00,WSW,247,6.0,14.0,30,0.00,,,0.00,1004.000000,,2013-06-25 19:53:00,
2013-06-25 13:33:00,87.0,50.0,-100.00,NW,311,25.0,37.0,28,0.00,,,0.00,1069.000000,,2013-06-25 20:33:00,
2013-06-25 13:42:00,87.0,50.0,-100.00,NW,311,25.0,37.0,28,0.00,,,0.00,1069.000000,,2013-06-25 20:42:00,
2013-06-25 13:52:00,87.0,50.0,-100.00,NW,311,25.0,37.0,28,0.00,,,0.00,1069.000000,,2013-06-25 20:52:00,
2013-06-25 14:22:00,84.0,48.0,-100.00,NW,310,32.0,46.0,29,0.00,,,0.00,1076.000000,,2013-06-25 21:22:00,
2013-06-25 14:33:00,84.0,48.0,-100.00,NW,310,32.0,46.0,29,0.00,,,0.00,1076.000000,,2013-06-25 21:33:00,
2013-06-25 14:43:00,84.0,48.0,-100.00,NW,310,32.0,46.0,29,0.00,,,0.00,1076.000000,,2013-06-25 21:43:00,
2013-06-25 14:53:00,84.0,48.0,-100.00,NW,310,32.0,46.0,29,0.00,,,0.00,1076.000000,,2013-06-25 21:53:00,
2013-06-25 15:22:00,84.0,47.0,-100.00,NW,323,33.0,43.0,28,0.00,,,0.00,1027.000000,,2013-06-25 22:22:00,
2013-06-25 15:33:00,84.0,47.0,-100.00,NW,323,33.0,43.0,28,0.00,,,0.00,1027.000000,,2013-06-25 22:33:00,
2013-06-25 15:42:00,84.0,47.0,-100.00,NW,323,33.0,43.0,28,0.00,,,0.00,1027.000000,,2013-06-25 22:42:00,
2013-06-25 15:52:00,84.0,47.0,-100.00,NW,323,33.0,43.0,28,0.00,,,0.00,1027.000000,,2013-06-25 22:52:00,
2013-06-25 16:22:00,86.0,51.0,-100.00,NNW,327,27.0,40.0,30,0.00,,,0.00,911.000000,,2013-06-25 23:22:00,
2013-06-25 16:34:00,86.0,51.0,-100.00,NNW,327,27.0,40.0,30,0.00,,,0.00,911.000000,,2013-06-25 23:34:00,
2013-06-25 16:43:00,86.0,51.0,-100.00,NNW,327,27.0,40.0,30,0.00,,,0.00,911.000000,,2013-06-25 23:43:00,
2013-06-25 16:52:00,86.0,51.0,-100.00,NNW,327,27.0,40.0,30,0.00,,,0.00,911.000000,,2013-06-25 23:52:00,
2013-06-25 18:33:00,84.0,52.0,-100.00,NW,325,30.0,42.0,33,0.00,,,0.00,540.000000,,2013-06-26 01:33:00,
2013-06-25 18:43:00,84.0,52.0,-100.00,NW,325,30.0,42.0,33,0.00,,,0.00,540.000000,,2013-06-26 01:43:00,
2013-06-25 18:52:00,84.0,52.0,-100.00,NW,325,30.0,42.0,33,0.00,,,0.00,540.000000,,2013-06-26 01:52:00,
2013-06-25 19:22:00,81.0,52.0,-100.00,NNW,335,31.0,43.0,36,0.00,,,0.00,326.000000,,2013-06-26 02:22:00,
2013-06-25 19:34:00,81.0,52.0,-100.00,NNW,335,31.0,43.0,36,0.00,,,0.00,326.000000,,2013-06-26 02:34:00,
2013-06-25 19:43:00,81.0,52.0,-100.00,NNW,335,31.0,43.0,36,0.00,,,0.00,326.000000,,2013-06-26 02:43:00,
2013-06-25 19:53:00,81.0,52.0,-100.00,NNW,335,31.0,43.0,36,0.00,,,0.00,326.000000,,2013-06-26 02:53:00,
2013-06-25 20:22:00,80.0,53.0,-100.00,North,354,18.0,36.0,40,0.00,,,0.00,75.000000,,2013-06-26 03:22:00,
2013-06-25 20:33:00,80.0,53.0,-100.00,North,354,18.0,36.0,40,0.00,,,0.00,75.000000,,2013-06-26 03:33:00,
2013-06-25 20:43:00,80.0,53.0,-100.00,North,354,18.0,36.0,40,0.00,,,0.00,75.000000,,2013-06-26 03:43:00,
2013-06-25 20:52:00,80.0,53.0,-100.00,North,354,18.0,36.0,40,0.00,,,0.00,75.000000,,2013-06-26 03:52:00,
2013-06-25 21:33:00,78.0,54.0,-100.00,NNW,336,16.0,25.0,44,0.00,,,0.00,2.000000,,2013-06-26 04:33:00,
2013-06-25 21:43:00,78.0,54.0,-100.00,NNW,336,16.0,25.0,44,0.00,,,0.00,2.000000,,2013-06-26 04:43:00,
2013-06-25 21:53:00,78.0,54.0,-100.00,NNW,336,16.0,25.0,44,0.00,,,0.00,2.000000,,2013-06-26 04:53:00,
2013-06-25 22:22:00,75.0,53.0,-100.00,NNE,31,5.0,17.0,47,0.00,,,0.00,0.000000,,2013-06-26 05:22:00,
2013-06-25 22:34:00,75.0,53.0,-100.00,NNE,31,5.0,17.0,47,0.00,,,0.00,0.000000,,2013-06-26 05:34:00,
2013-06-25 22:43:00,75.0,53.0,-100.00,NNE,31,5.0,17.0,47,0.00,,,0.00,0.000000,,2013-06-26 05:43:00,
2013-06-25 22:52:00,75.0,53.0,-100.00,NNE,31,5.0,17.0,47,0.00,,,0.00,0.000000,,2013-06-26 05:52:00,
2013-06-25 23:22:00,74.0,55.0,-100.00,South,174,3.0,14.0,51,0.00,,,0.00,0.000000,,2013-06-26 06:22:00,
2013-06-25 23:34:00,74.0,55.0,-100.00,South,174,3.0,14.0,51,0.00,,,0.00,0.000000,,2013-06-26 06:34:00,
2013-06-25 23:43:00,74.0,55.0,-100.00,South,174,3.0,14.0,51,0.00,,,0.00,0.000000,,2013-06-26 06:43:00,
2013-06-25 23:53:00,74.0,55.0,-100.00,South,174,3.0,14.0,51,0.00,,,0.00,0.000000,,2013-06-26 06:53:00,